EST,Max TemperatureF,Mean TemperatureF,Min TemperatureF,Max Dew PointF,MeanDew PointF,Min DewpointF,Max Humidity, Mean Humidity, Min Humidity, Max Sea Level PressureIn, Mean Sea Level PressureIn, Min Sea Level PressureIn, Max VisibilityMiles, Mean VisibilityMiles, Min VisibilityMiles, Max Wind SpeedMPH, Mean Wind SpeedMPH, Max Gust SpeedMPH,PrecipitationIn, CloudCover, Events, WindDirDegrees
2012-11-1,64,52,39,30,26,22,66,43,23,30.01,29.94,29.90,10,10,10,17,6,22,0.00,0,,272
2012-11-2,74,55,36,47,39,26,90,57,35,30.04,29.99,29.92,10,10,10,17,4,24,0.00,1,,262
2012-11-3,79,58,36,52,45,36,100,72,31,30.16,30.08,30.03,10,10,7,9,1,,0.00,0,,241
2012-11-4,79,64,50,59,55,50,100,74,44,30.05,30.01,29.96,10,10,5,17,6,22,0.00,1,,260
2012-11-5,63,54,45,49,45,42,100,74,47,30.12,30.06,30.00,10,10,5,13,5,20,0.00,2,,39
2012-11-6,52,44,33,47,42,34,100,87,64,30.06,30.02,29.97,10,8,3,15,5,20,0.00,6,,49
2012-11-7,49,40,32,43,38,32,100,95,78,30.05,29.99,29.93,10,7,2,6,0,,0.00,6,,328
2012-11-8,64,46,27,42,35,28,100,78,33,30.21,30.15,30.05,10,8,3,8,2,,0.00,0,,290
2012-11-9,68,48,28,41,35,28,100,72,28,30.34,30.27,30.21,10,9,4,8,1,,0.00,0,,206
2012-11-10,72,50,29,40,36,29,100,69,27,30.41,30.36,30.30,10,10,7,6,1,,0.00,0,,157
2012-11-11,72,52,33,57,47,33,100,81,52,30.50,30.42,30.39,10,10,10,10,1,,0.00,3,,109
2012-11-12,71,62,53,66,60,54,100,93,73,30.40,30.31,30.22,10,8,1,9,3,16,0.00,4,,143
2012-11-13,61,52,43,61,51,40,100,92,82,30.37,30.29,30.23,10,10,5,9,4,,0.00,6,,3
2012-11-14,51,47,42,44,39,36,100,76,59,30.45,30.37,30.31,10,10,2,15,8,20,0.00,7,,35
2012-11-15,49,43,37,47,42,37,100,99,87,30.35,30.31,30.26,10,5,1,9,5,17,0.00,7,,14
2012-11-16,56,44,32,44,38,32,100,89,55,30.38,30.33,30.29,10,7,2,10,2,17,0.00,1,,26
2012-11-17,58,44,29,39,33,30,100,70,39,30.46,30.41,30.38,10,8,2,14,4,23,0.00,1,,28
2012-11-18,61,54,46,48,41,32,93,68,48,30.44,30.38,30.32,10,10,10,16,9,23,0.00,6,,19
2012-11-19,65,54,41,51,48,42,100,80,60,30.33,30.28,30.22,10,10,7,13,7,22,0.00,4,,17
2012-11-20,64,50,37,50,45,37,100,88,59,30.24,30.17,30.11,10,9,5,6,1,,0.00,2,,359
2012-11-21,66,49,32,48,40,32,100,81,41,30.21,30.17,30.13,10,10,7,10,1,,0.00,0,,25
2012-11-22,65,47,29,42,36,30,100,78,39,30.32,30.25,30.21,10,9,5,9,1,,0.00,0,,8
2012-11-23,70,50,29,51,41,29,100,72,39,30.23,30.13,30.03,10,10,4,16,3,24,0.00,1,,260
2012-11-24,57,42,28,46,30,24,89,57,29,30.17,30.10,30.06,10,10,10,15,8,22,0.00,0,,288
2012-11-25,58,40,22,30,26,22,100,69,29,30.25,30.18,30.12,10,10,10,7,1,,0.00,0,,195
2012-11-26,68,48,27,33,29,26,96,61,24,30.27,30.21,30.17,10,10,10,8,1,,0.00,0,,239
2012-11-27,51,44,38,51,45,32,100,91,51,30.24,30.20,30.14,10,7,0,9,2,,0.00,8,,216
2012-11-28,57,45,33,50,45,33,100,91,64,30.42,30.35,30.23,10,7,1,8,2,,0.00,4,,41
2012-11-29,59,43,27,42,33,28,100,79,37,30.50,30.44,30.39,10,9,3,9,1,,0.00,0,,111
2012-11-30,63,45,27,52,41,28,100,88,61,30.44,30.39,30.34,10,10,7,5,0,,0.00,4,,51